[[{"header":{"parameterUnit":"m.s-1","parameterCategory":1,"la1":30.2991,"la2":30.254,"lo1":-89.0895,"lo2":-89.0444,"dy":0.0017,"dx":0.0017,"nx":28,"ny":28,"refTime":"2025-03-23T03:00:00:Z","depth":0,"parameterNumber":2,"parameterNumberName":"U-component_of_WINDS"},"data":[0,0,0,0,0,0,0,0,0,0,0,0,0,0,0,0,0,0,0,0,0,0,0,0,0,0,0,0,0,0,0,0,0,0,0,0,0,0,0,0,0,0,0,0,0,0,0,0,0,0,0,0,0,0,0,0,0,0,-0.0797,-0.0796,0,-0.0698,-0.0696,-0.0695,-0.0663,-0.0664,-0.0664,-0.0664,-0.0561,-0.0558,-0.0555,0,0,0,0,0,0,0,0,0,0,0,0,0,-0.0957,-0.0954,-0.0797,-0.0796,-0.0794,-0.0698,-0.0696,-0.0695,-0.0663,-0.0664,-0.0664,-0.0665,-0.0562,-0.0558,-0.0554,0,0,0,0,0,0,0,0,0,0,0,0,0,-0.0875,-0.0953,-0.0797,-0.0767,-0.0763,-0.0698,-0.0696,-0.0695,-0.0663,-0.0664,-0.0664,-0.0665,-0.0563,-0.0558,-0.0554,-0.0511,0,0,-0.0539,-0.0537,0,0,0,0,0,0,0,0,-0.088,-0.087,-0.0772,-0.0769,-0.0764,-0.0693,-0.0715,-0.0633,-0.0663,-0.0701,-0.0664,-0.0665,-0.0604,-0.0596,-0.0576,-0.0506,-0.0502,-0.0539,-0.0536,-0.0534,-0.0532,0,0,0,0,0,0,0,-0.0886,-0.0874,-0.0757,-0.0771,-0.0766,-0.0758,-0.0747,-0.0699,-0.065,-0.0698,-0.0695,-0.0684,-0.0602,-0.0581,-0.0573,-0.05,-0.0539,-0.0535,-0.0532,-0.053,-0.039,-0.0389,0,0,0,0,0,0,-0.0897,-0.0879,-0.0761,-0.0754,-0.0825,-0.0754,-0.0742,-0.0716,-0.065,-0.0641,-0.0683,-0.0683,-0.0588,-0.0579,-0.057,-0.0515,-0.0534,-0.0529,-0.0527,-0.0391,-0.039,-0.0389,0,0,0,0,0,0,-0.09,-0.0887,-0.0765,-0.0816,-0.08,-0.0751,-0.0721,-0.0713,-0.0692,-0.064,-0.0631,-0.0671,-0.0589,-0.0576,-0.0526,-0.0511,-0.0527,-0.0523,-0.0392,-0.0391,-0.039,-0.0406,0,0,0,0,0,0,-0.0905,-0.0888,-0.0872,-0.0816,-0.0797,-0.0723,-0.072,-0.0711,-0.0684,-0.0682,-0.0625,-0.0616,-0.0588,-0.0533,-0.0521,-0.0505,-0.0519,-0.0393,-0.0392,-0.039,-0.0406,-0.0405,-0.0404,0,0,0,0,0,-0.0911,-0.088,-0.0871,-0.0857,-0.0776,-0.0722,-0.0712,-0.068,-0.0683,-0.0666,-0.0632,-0.0618,-0.0515,-0.0528,-0.0515,-0.0496,-0.0394,-0.0392,-0.039,-0.0407,-0.0406,-0.0404,0,0,0,0,0,0,-0.0934,-0.0872,-0.0861,-0.0811,-0.0772,-0.0717,-0.0694,-0.068,-0.0639,-0.0639,-0.0601,-0.0589,-0.0541,-0.0514,-0.053,-0.0452,-0.0454,-0.0449,-0.0471,-0.047,-0.0469,-0.0476,-0.0515,0,0,0,0,0,-0.0934,-0.0896,-0.0843,-0.0804,-0.0785,-0.0743,-0.0719,-0.0698,-0.0656,-0.064,-0.0603,-0.0562,-0.052,-0.0493,-0.0452,-0.0403,-0.039,-0.0384,-0.0383,-0.0382,-0.0378,-0.035,-0.0346,-0.0383,-0.0383,-0.0383,0,0,-0.0931,-0.0893,-0.0871,-0.0808,-0.0775,-0.0737,-0.073,-0.0689,-0.066,-0.0633,-0.0584,-0.0555,-0.0507,-0.0457,-0.0433,-0.0433,-0.0365,-0.038,-0.0379,-0.0376,-0.0348,-0.0344,-0.0341,-0.0382,-0.0382,-0.0382,0,0,-0.0908,-0.0876,-0.0839,-0.0807,-0.0759,-0.0731,-0.0722,-0.0669,-0.065,-0.0599,-0.0579,-0.0543,-0.0472,-0.0439,-0.0413,-0.0379,-0.0364,-0.0366,-0.036,-0.0333,-0.033,-0.0328,-0.0315,-0.0311,-0.0363,-0.0363,-0.0363,0,-0.0912,-0.0853,-0.0822,-0.0783,-0.0756,-0.0731,-0.0693,-0.0664,-0.0604,-0.0585,-0.0586,-0.0497,-0.0463,-0.0405,-0.0396,-0.0376,-0.0365,-0.0372,-0.0334,-0.033,-0.0327,-0.0315,-0.031,-0.0363,-0.0363,-0.0363,-0.0363,0,-0.086,-0.082,-0.0797,-0.074,-0.071,-0.0672,-0.0635,-0.0608,-0.0591,-0.0563,-0.0513,-0.0471,-0.0421,-0.0406,-0.0388,-0.0345,-0.0347,-0.0341,-0.0342,-0.0325,-0.0313,-0.0308,-0.0364,-0.0364,-0.0364,-0.0363,0,0,-0.0847,-0.0775,-0.0767,-0.0741,-0.0686,-0.0654,-0.0616,-0.0568,-0.0545,-0.0505,-0.0471,-0.0412,-0.0407,-0.0377,-0.0356,-0.0332,-0.0307,-0.0329,-0.0327,-0.0326,-0.0258,-0.0262,-0.0257,-0.0298,-0.0297,-0.0296,-0.0261,0,-0.0817,-0.0746,-0.0717,-0.066,-0.0623,-0.0599,-0.0565,-0.0528,-0.0501,-0.0465,-0.0436,-0.0394,-0.0391,-0.0373,-0.0348,-0.0316,-0.0293,-0.0318,-0.0265,-0.0264,-0.0277,-0.025,-0.0254,-0.0224,-0.0256,-0.0256,-0.0255,0,-0.0771,-0.0732,-0.0671,-0.0621,-0.0604,-0.0574,-0.0528,-0.0494,-0.0451,-0.0434,-0.0401,-0.0381,-0.0339,-0.0344,-0.0285,-0.0303,-0.028,-0.026,-0.0259,-0.0252,-0.0258,-0.0242,-0.0213,-0.0209,-0.0247,-0.0248,-0.0248,0,-0.0767,-0.0699,-0.0654,-0.0633,-0.0574,-0.0553,-0.0527,-0.0485,-0.0458,-0.0418,-0.04,-0.0355,-0.033,-0.0296,-0.0264,-0.0271,-0.0209,-0.0211,-0.0192,-0.0193,-0.0179,-0.018,-0.0146,-0.0166,-0.0166,-0.0166,-0.0166,0,-0.0736,-0.0699,-0.0652,-0.0624,-0.0583,-0.055,-0.051,-0.0483,-0.0445,-0.0412,-0.0388,-0.0357,-0.0317,-0.0281,-0.0256,-0.0211,-0.02,-0.0184,-0.0178,-0.0186,-0.0188,-0.0169,-0.017,-0.0165,-0.0165,-0.0165,-0.0165,0,-0.0724,-0.0691,-0.064,-0.0589,-0.0575,-0.0547,-0.0502,-0.0474,-0.0447,-0.0405,-0.0393,-0.035,-0.0306,-0.0271,-0.0214,-0.0197,-0.0149,-0.0143,-0.0164,-0.0161,-0.0144,-0.0146,-0.0096,-0.0087,-0.0114,-0.0114,-0.0114,0,-0.0706,-0.0677,-0.0623,-0.0599,-0.0574,-0.0536,-0.0508,-0.0475,-0.0448,-0.0397,-0.0375,-0.033,-0.0292,-0.0223,-0.0186,-0.0142,-0.0134,-0.0119,-0.0127,-0.0136,-0.0133,-0.0135,-0.0132,-0.0118,-0.0118,-0.0118,-0.0118,0,-0.0676,-0.0662,-0.0624,-0.058,-0.0548,-0.0512,-0.0475,-0.0457,-0.0417,-0.0388,-0.0343,-0.0314,-0.0255,-0.021,-0.0163,-0.0136,-0.012,-0.0116,-0.0109,-0.0117,-0.013,-0.0122,-0.0161,-0.0117,-0.0117,-0.0117,-0.0117,-0.0117,-0.066,-0.0634,-0.0592,-0.0551,-0.052,-0.0486,-0.0458,-0.0427,-0.039,-0.034,-0.0323,-0.0277,-0.0235,-0.0169,-0.0142,-0.0105,-0.0104,-0.0095,-0.0092,-0.009,-0.0091,-0.0137,-0.0097,-0.0097,-0.0097,-0.0097,-0.0097,0,-0.0629,-0.0601,-0.0564,-0.0514,-0.0481,-0.047,-0.0429,-0.0402,-0.0362,-0.0325,-0.0288,-0.0237,-0.0194,-0.0154,-0.0109,-0.0087,-0.0079,-0.0076,-0.0077,-0.0071,-0.0095,-0.0105,-0.0084,-0.0084,-0.0084,-0.0084,-0.0084,-0.0084,-0.0609,-0.0565,-0.0545,-0.0485,-0.0457,-0.0412,-0.0389,-0.0358,-0.0328,-0.0272,-0.0237,-0.0211,-0.0173,-0.0125,-0.0085,-0.0074,-0.0058,-0.0058,-0.0045,-0.0068,-0.0069,-0.0071,-0.008,-0.0055,-0.0055,-0.0025,-0.0025,-0.0024]},{"header":{"parameterUnit":"m.s-1","parameterCategory":1,"la1":30.2991,"la2":30.254,"lo1":-89.0895,"lo2":-89.0444,"dy":0.0017,"dx":0.0017,"nx":28,"ny":28,"refTime":"2025-03-23T03:00:00:Z","depth":0,"parameterNumber":3,"parameterNumberName":"V-component_of_WINDS"},"data":[0,0,0,0,0,0,0,0,0,0,0,0,0,0,0,0,0,0,0,0,0,0,0,0,0,0,0,0,0,0,0,0,0,0,0,0,0,0,0,0,0,0,0,0,0,0,0,0,0,0,0,0,0,0,0,0,0,0,3.0953,3.0953,0,3.0972,3.0972,3.0972,3.0921,3.0919,3.0918,3.0916,3.0932,3.0934,3.0936,0,0,0,0,0,0,0,0,0,0,0,0,0,3.087,3.0872,3.0953,3.0953,3.0954,3.0972,3.0972,3.0972,3.0921,3.0919,3.0917,3.0915,3.0932,3.0934,3.0936,0,0,0,0,0,0,0,0,0,0,0,0,0,3.0899,3.0873,3.0953,3.093,3.0929,3.0972,3.0972,3.0972,3.0922,3.0919,3.0917,3.0915,3.0931,3.0934,3.0936,3.1002,0,0,3.0945,3.0946,0,0,0,0,0,0,0,0,3.0898,3.0902,3.0933,3.0932,3.093,3.0942,3.0949,3.0982,3.0922,3.0924,3.0916,3.0913,3.0937,3.0939,3.0948,3.1002,3.1003,3.0945,3.0947,3.0948,3.0949,0,0,0,0,0,0,0,3.0896,3.0901,3.096,3.0934,3.0932,3.0918,3.092,3.0955,3.0944,3.0924,3.092,3.0923,3.0936,3.0945,3.0948,3.1003,3.0945,3.0948,3.095,3.0951,3.1113,3.1115,0,0,0,0,0,0,3.0897,3.09,3.096,3.0961,3.0908,3.0922,3.0923,3.094,3.0943,3.0941,3.0925,3.0921,3.0942,3.0945,3.0948,3.1026,3.0948,3.0951,3.0953,3.111,3.1113,3.1116,0,0,0,0,0,0,3.0896,3.0903,3.0959,3.093,3.0936,3.0926,3.0945,3.0942,3.0951,3.0944,3.0942,3.0937,3.094,3.0944,3.0989,3.1026,3.0952,3.0955,3.1107,3.1111,3.1115,3.1181,0,0,0,0,0,0,3.0893,3.0903,3.0928,3.0931,3.0937,3.1001,3.0947,3.0944,3.0957,3.0951,3.0955,3.0953,3.0938,3.0985,3.0992,3.1028,3.0957,3.1104,3.1109,3.1114,3.1175,3.1186,3.1196,0,0,0,0,0,3.0891,3.0945,3.093,3.0937,3.0969,3.1003,3.1007,3.0989,3.096,3.0985,3.098,3.0953,3.102,3.099,3.0997,3.1035,3.1102,3.1108,3.1113,3.1171,3.1184,3.1196,0,0,0,0,0,0,3.0946,3.0945,3.0928,3.0985,3.0995,3.0994,3.1025,3.1004,3.1022,3.1015,3.0992,3.0993,3.1043,3.1043,3.101,3.1099,3.1056,3.1063,3.1097,3.111,3.112,3.1119,3.096,0,0,0,0,0,3.0965,3.0993,3.099,3.1041,3.1047,3.1035,3.1049,3.1035,3.1044,3.1047,3.1046,3.1055,3.1078,3.1093,3.1114,3.1175,3.1175,3.1204,3.1214,3.1223,3.123,3.1263,3.1276,3.1135,3.1135,3.1135,0,0,3.1003,3.1007,3.1026,3.1052,3.1058,3.1087,3.1039,3.1072,3.1094,3.1052,3.1095,3.1094,3.1102,3.1156,3.1179,3.1158,3.1269,3.123,3.1237,3.124,3.127,3.1283,3.1295,3.1139,3.1139,3.1138,0,0,3.109,3.1095,3.1138,3.1146,3.1156,3.1148,3.1158,3.1162,3.116,3.1203,3.1173,3.1197,3.1237,3.1245,3.1254,3.1344,3.132,3.1351,3.1406,3.1438,3.1449,3.1459,3.1492,3.1504,3.1358,3.1358,3.1358,0,3.1137,3.1182,3.1163,3.1199,3.1211,3.1176,3.122,3.1227,3.1243,3.1252,3.1227,3.1278,3.1281,3.1336,3.1358,3.1366,3.1377,3.1351,3.1449,3.1459,3.1467,3.1499,3.1511,3.1362,3.1362,3.1361,3.1361,0,3.124,3.1271,3.1304,3.1323,3.1338,3.1378,3.1364,3.1382,3.1367,3.1362,3.1406,3.1408,3.1429,3.1441,3.1425,3.1494,3.1481,3.1453,3.141,3.1485,3.1514,3.1526,3.1368,3.1366,3.1365,3.1364,0,0,3.1362,3.137,3.1382,3.1391,3.1399,3.1423,3.146,3.1482,3.1499,3.151,3.1542,3.1577,3.1551,3.1562,3.1547,3.1575,3.1648,3.1544,3.1544,3.1564,3.1725,3.1746,3.1761,3.1631,3.1633,3.1635,3.1724,0,3.1448,3.1515,3.1499,3.1564,3.1593,3.156,3.1593,3.1601,3.1597,3.162,3.1615,3.1641,3.1605,3.1611,3.1638,3.1633,3.168,3.1626,3.166,3.1661,3.1661,3.1776,3.1799,3.1883,3.1735,3.1737,3.1739,0,3.1558,3.1577,3.1645,3.165,3.1662,3.1692,3.1711,3.1733,3.1742,3.1737,3.1749,3.1729,3.1765,3.1721,3.1771,3.1736,3.1748,3.1748,3.1751,3.1754,3.1706,3.1783,3.1909,3.1922,3.1756,3.1755,3.1754,0,3.1643,3.1684,3.173,3.1738,3.1745,3.1767,3.177,3.1777,3.1791,3.1808,3.1817,3.1836,3.1848,3.1863,3.1848,3.1817,3.1901,3.1856,3.1898,3.1899,3.1918,3.1918,3.2049,3.1925,3.1924,3.1924,3.1924,0,3.1742,3.1785,3.1769,3.1798,3.1845,3.1826,3.1874,3.1873,3.1879,3.1907,3.1879,3.1905,3.1883,3.1908,3.1896,3.194,3.1945,3.1942,3.1938,3.1945,3.1946,3.1954,3.1948,3.1927,3.1927,3.1926,3.1925,0,3.1844,3.1835,3.1884,3.1887,3.1888,3.1923,3.1925,3.1952,3.1945,3.1981,3.1988,3.1978,3.2005,3.1992,3.202,3.2012,3.2069,3.2057,3.2067,3.2064,3.2108,3.2105,3.2251,3.2269,3.2131,3.2133,3.2134,0,3.1909,3.1942,3.1949,3.1966,3.1972,3.2,3.2015,3.1997,3.2014,3.2027,3.2052,3.2077,3.2096,3.2141,3.2136,3.2157,3.2146,3.2196,3.2149,3.2155,3.2148,3.2147,3.2151,3.2205,3.2207,3.2208,3.2209,0,3.2025,3.2019,3.2043,3.2065,3.2085,3.2101,3.2114,3.213,3.2112,3.2132,3.216,3.2176,3.2205,3.223,3.2249,3.2251,3.2228,3.2224,3.2235,3.2243,3.2248,3.2248,3.2094,3.2221,3.222,3.2219,3.2218,3.2218,3.2112,3.214,3.215,3.2177,3.2186,3.22,3.2225,3.2223,3.2246,3.227,3.2257,3.229,3.2298,3.2321,3.2327,3.2352,3.2332,3.2348,3.2352,3.2357,3.2364,3.2243,3.2355,3.2355,3.2354,3.2354,3.2354,0,3.2228,3.2233,3.2258,3.2279,3.2301,3.2277,3.2291,3.2311,3.2341,3.2351,3.2371,3.2403,3.2428,3.2425,3.2447,3.2468,3.2458,3.2474,3.2473,3.2475,3.2379,3.2368,3.2482,3.2482,3.2482,3.2482,3.2482,3.2482,3.2291,3.2339,3.2334,3.2385,3.2388,3.2422,3.2432,3.2444,3.2452,3.2491,3.2512,3.251,3.2514,3.2537,3.2558,3.2557,3.2567,3.2588,3.2582,3.2494,3.2481,3.2469,3.2458,3.259,3.259,3.2675,3.2676,3.2677]}]]